Location: Newark
(58.8333°N, 23.5833°E)
Time: 05:54:22
(UTC+00:00)

Tiros 1 despin weight - Pass Details

Date: 21 November 2019
Orbit: 594 x 642 km, 48.2° (Epoch: 13 December)

Event Time Altitude Azimuth Distance (km) Brightness Sun altitude
Rises 14:50:38 0° 256° (WSW) 2,837 ? -7.1°
Reaches altitude 10° 14:53:31 10° 237° (WSW) 1,940 ? -7.4°
Maximum altitude 14:56:30 18° 195° (SSW) 1,503 ? -7.8°
Drops below altitude 10° 14:59:29 10° 153° (SSE) 1,953 ? -8.1°
Sets 15:02:24 0° 134° (SE) 2,865 ? -8.5°
